Time,TemperatureF,DewpointF,PressureIn,WindDirection,WindDirectionDegrees,WindSpeedMPH,WindSpeedGustMPH,Humidity,HourlyPrecipIn,Conditions,Clouds,dailyrainin,SoftwareType,DateUTC
2015-04-28 00:00:00,48.5,29.2,30.01,East,93,0.0,12.0,47,0.00,,,0.00,Wunderground v.1.15,2015-04-28 05:00:00,
2015-04-28 00:05:00,49.0,28.6,30.01,East,93,0.0,12.0,45,0.00,,,0.00,Wunderground v.1.15,2015-04-28 05:05:00,
2015-04-28 00:10:00,49.2,28.7,30.01,East,93,0.0,12.0,45,0.00,,,0.00,Wunderground v.1.15,2015-04-28 05:10:00,
2015-04-28 00:15:00,49.1,29.7,30.01,East,93,0.0,12.0,47,0.00,,,0.00,Wunderground v.1.15,2015-04-28 05:15:00,
2015-04-28 00:20:00,49.0,29.6,30.01,East,94,0.0,12.0,47,0.00,,,0.00,Wunderground v.1.15,2015-04-28 05:20:00,
2015-04-28 00:26:00,49.0,28.6,30.01,East,94,0.0,12.0,45,0.00,,,0.00,Wunderground v.1.15,2015-04-28 05:26:00,
2015-04-28 00:31:00,49.2,29.8,30.01,East,94,0.0,12.0,47,0.00,,,0.00,Wunderground v.1.15,2015-04-28 05:31:00,
2015-04-28 00:36:00,49.2,29.3,30.01,East,94,0.0,12.0,46,0.00,,,0.00,Wunderground v.1.15,2015-04-28 05:36:00,
2015-04-28 00:41:00,49.6,28.6,30.01,East,93,0.0,12.0,44,0.00,,,0.00,Wunderground v.1.15,2015-04-28 05:41:00,
2015-04-28 00:46:00,49.9,29.4,30.01,East,93,0.0,12.0,45,0.00,,,0.00,Wunderground v.1.15,2015-04-28 05:46:00,
2015-04-28 00:52:00,50.0,29.5,30.01,East,94,0.0,12.0,45,0.00,,,0.00,Wunderground v.1.15,2015-04-28 05:52:00,
2015-04-28 00:57:00,49.9,29.9,30.01,East,93,0.0,12.0,46,0.00,,,0.00,Wunderground v.1.15,2015-04-28 05:57:00,
2015-04-28 01:02:00,49.7,30.3,30.01,East,94,0.0,12.0,47,0.00,,,0.00,Wunderground v.1.15,2015-04-28 06:02:00,
2015-04-28 01:07:00,49.5,30.6,30.02,East,94,0.0,12.0,48,0.00,,,0.00,Wunderground v.1.15,2015-04-28 06:07:00,
2015-04-28 01:12:00,49.4,31.0,30.01,East,94,0.0,12.0,49,0.00,,,0.00,Wunderground v.1.15,2015-04-28 06:12:00,
2015-04-28 01:18:00,49.3,31.4,30.02,East,95,0.0,12.0,50,0.00,,,0.00,Wunderground v.1.15,2015-04-28 06:18:00,
2015-04-28 01:23:00,49.2,30.8,30.01,East,95,0.0,12.0,49,0.00,,,0.00,Wunderground v.1.15,2015-04-28 06:23:00,
2015-04-28 01:28:00,49.4,30.5,30.01,East,101,0.0,12.0,48,0.00,,,0.00,Wunderground v.1.15,2015-04-28 06:28:00,
2015-04-28 01:33:00,49.3,30.4,30.02,East,101,0.0,12.0,48,0.00,,,0.00,Wunderground v.1.15,2015-04-28 06:33:00,
2015-04-28 01:38:00,49.2,29.8,30.02,East,100,0.0,12.0,47,0.00,,,0.00,Wunderground v.1.15,2015-04-28 06:38:00,
2015-04-28 01:44:00,49.2,29.8,30.02,East,100,0.0,12.0,47,0.00,,,0.00,Wunderground v.1.15,2015-04-28 06:44:00,
2015-04-28 01:49:00,49.2,30.3,30.02,East,100,0.0,12.0,48,0.00,,,0.00,Wunderground v.1.15,2015-04-28 06:49:00,
2015-04-28 01:54:00,49.1,30.2,30.02,East,100,0.0,12.0,48,0.00,,,0.00,Wunderground v.1.15,2015-04-28 06:54:00,
2015-04-28 01:59:00,48.9,30.1,30.02,East,101,0.0,12.0,48,0.00,,,0.00,Wunderground v.1.15,2015-04-28 06:59:00,
2015-04-28 02:04:00,48.7,29.9,30.02,East,100,0.0,12.0,48,0.00,,,0.00,Wunderground v.1.15,2015-04-28 07:04:00,
2015-04-28 02:10:00,48.5,30.2,30.01,East,101,0.0,12.0,49,0.00,,,0.00,Wunderground v.1.15,2015-04-28 07:10:00,
2015-04-28 02:15:00,48.4,30.1,30.01,East,100,0.0,12.0,49,0.00,,,0.00,Wunderground v.1.15,2015-04-28 07:15:00,